Theta_e
277 277 277 277 278 278 278 277 277 277 277 276 276 277 277 278 279 279 279 281 281 282 283 284 284 285 285 285 285 285 285 285 283 282 283 284 284 284 284 284 284 283 283
276 276 277 277 277 277 276 276 277 276 276 276 276 275 276 276 278 278 279 280 280 281 282 283 283 284 284 284 283 283 282 283 283 281 281 281 282 283 283 282 282 283 281
275 275 276 276 276 275 276 276 276 275 275 274 275 274 275 275 275 276 278 278 279 280 281 282 283 283 282 281 281 281 281 282 281 279 278 280 280 281 280 280 280 280 281
275 274 274 274 275 275 275 275 275 274 273 273 273 274 275 275 275 276 278 279 279 280 281 283 283 282 281 281 281 280 280 280 280 279 278 279 279 280 279 278 278 279 279
273 272 272 274 274 274 274 274 274 274 273 273 272 272 273 274 276 277 278 279 280 280 281 282 283 282 283 283 282 281 281 280 280 279 278 278 277 277 277 278 277 278 277
270 270 271 272 272 272 273 273 273 273 272 271 271 271 272 274 277 279 280 280 281 281 280 282 283 282 282 284 285 285 282 280 279 278 277 277 277 278 278 278 277 275 272
268 269 270 270 270 271 271 272 271 270 270 269 270 270 270 272 276 278 279 279 280 281 281 282 282 282 280 281 282 283 283 284 283 281 278 278 278 279 278 277 277 275 273
268 268 270 268 268 270 270 269 269 269 268 268 268 269 270 271 275 277 279 279 279 280 281 282 281 281 281 281 279 279 279 280 281 281 280 280 279 280 278 278 277 274 273
267 267 268 267 265 265 265 265 266 266 267 267 269 269 269 269 274 277 278 278 279 279 280 281 281 280 281 283 278 276 276 278 282 283 282 282 283 283 280 277 274 271 270
267 267 265 265 263 262 263 264 265 266 267 268 268 268 268 268 273 276 277 278 277 278 277 279 280 278 281 282 278 277 274 275 276 276 276 277 278 275 281 279 277 274 273
268 266 264 263 263 263 263 264 265 265 265 264 266 267 267 269 270 276 278 277 277 278 277 277 277 281 281 282 282 278 277 277 276 276 274 275 272 270 269 269 271 275 274
265 263 263 262 263 264 263 264 265 263 262 264 265 266 269 269 272 274 277 277 279 278 277 279 278 281 281 281 281 282 282 281 277 274 272 271 268 265 265 267 266 266 268
262 260 261 261 263 263 263 261 261 263 263 264 265 265 266 268 270 274 275 277 278 277 278 279 282 282 282 282 282 281 276 274 272 268 268 266 266 265 262 261 260 261 264
259 259 260 260 260 261 261 261 261 261 261 262 264 265 266 267 269 271 273 274 276 276 278 276 278 280 282 279 278 278 275 273 269 267 267 268 265 262 263 262 262 260 260
259 259 259 260 259 259 260 260 261 263 264 264 265 265 265 266 269 274 274 274 274 276 272 271 270 273 275 275 274 272 273 272 269 266 264 264 265 264 264 260 259 256 259
257 258 258 258 258 258 258 258 263 265 267 268 269 268 268 271 273 274 274 275 276 275 266 267 269 270 270 270 270 270 268 267 265 265 263 262 262 261 260 258 258 255 259
257 257 257 257 257 256 257 257 256 259 264 266 267 269 270 271 272 273 274 272 272 268 261 264 265 265 266 267 267 265 264 263 263 262 261 259 259 257 257 256 257 257 261
256 256 256 256 256 256 256 256 256 256 256 259 264 267 268 269 271 272 272 268 262 263 258 257 256 259 261 261 260 260 260 260 257 257 256 255 255 255 254 254 256 257 260
255 255 256 256 256 256 255 256 256 257 257 258 260 263 264 267 269 269 268 261 259 259 257 257 257 256 256 255 254 253 254 257 254 252 252 251 253 253 253 254 256 257 259
255 256 256 255 255 255 255 255 256 257 257 258 259 259 261 263 260 260 261 260 259 258 257 254 255 252 250 250 250 250 250 250 251 250 251 250 252 251 255 255 254 258 260
255 256 255 255 255 255 255 255 256 257 257 258 259 261 266 261 258 259 259 260 259 258 256 254 254 252 250 249 249 249 250 253 253 253 251 251 250 251 254 257 259 259 261
256 255 255 254 254 254 254 255 256 256 257 257 258 260 264 259 258 257 257 257 258 256 255 255 255 253 253 252 252 251 251 252 252 251 251 252 251 252 254 255 257 259 262
255 255 254 253 253 253 254 255 256 257 257 257 258 258 259 259 259 258 257 256 257 256 256 249 252 253 252 252 251 252 253 254 254 253 254 254 253 253 253 256 258 260 262
256 255 253 252 252 252 253 255 256 257 257 257 257 258 258 259 259 259 259 260 259 256 256 253 253 252 253 253 251 251 252 254 253 256 256 257 256 254 256 258 260 261 262
255 253 252 251 251 252 253 254 255 256 256 257 257 257 258 258 258 259 259 259 259 259 256 256 254 253 253 253 253 252 252 257 257 257 257 259 258 258 259 260 261 262 262
253 253 252 252 252 253 253 254 254 255 255 256 256 257 257 257 258 258 259 259 259 259 258 258 257 255 254 255 254 255 255 259 257 258 260 261 261 261 261 261 261 262 264
Wind_Speed
11 11 12 12 12 12 12 12 12 14 14 15 15 16 16 16 15 15 16 17 15 14 15 14 13 10 8 7 6 6 7 7 8 3 1 3 4 4 2 3 3 3 3
11 12 13 13 12 13 12 13 12 14 14 15 15 16 16 16 16 17 17 15 16 16 16 14 14 8 9 7 5 6 5 4 3 7 3 2 3 2 2 1 1 2 3
12 12 13 13 13 13 13 13 13 13 15 16 15 16 17 18 19 18 17 16 15 15 16 14 14 9 8 5 6 5 4 3 3 2 3 1 1 1 1 1 2 3 2
12 13 14 15 15 14 14 14 13 13 15 15 16 17 17 18 19 19 17 17 16 15 15 15 11 8 7 7 5 5 4 5 4 3 3 2 2 2 2 2 2 2 2
12 13 15 15 15 16 15 15 14 13 13 14 16 17 17 17 14 17 18 17 16 14 14 14 11 9 11 9 5 4 5 4 4 5 4 3 3 3 3 3 2 2 3
11 14 14 15 14 17 17 15 15 13 15 15 16 16 18 13 26 30 25 17 15 15 12 10 9 8 7 9 10 12 10 8 7 4 4 4 5 4 3 3 2 1 1
11 13 14 12 15 17 16 16 12 15 16 17 17 16 17 17 28 30 30 16 13 13 13 12 7 5 5 5 6 9 10 14 11 7 6 7 6 5 4 3 3 3 3
11 14 13 14 14 16 16 16 16 16 17 16 16 16 16 14 29 30 29 15 12 12 14 5 6 6 6 6 4 4 4 3 3 1 4 3 3 4 5 4 3 2 1
13 14 13 13 17 19 18 18 17 15 16 15 15 16 15 17 28 28 24 14 10 9 8 7 2 3 6 9 6 5 4 4 5 9 9 9 11 11 9 3 2 2 3
16 14 14 16 17 18 17 17 15 15 16 13 17 13 17 17 25 27 23 10 10 6 5 5 9 5 7 8 5 5 5 4 4 1 1 3 2 2 3 2 2 3 4
13 17 17 16 17 16 17 16 15 16 12 16 15 13 14 14 14 26 24 11 10 8 6 4 3 9 8 9 11 7 6 5 6 4 2 1 1 1 2 1 2 3 4
16 16 17 16 14 14 18 16 15 16 16 14 13 12 8 12 19 22 23 22 20 9 6 6 3 6 6 7 5 8 10 3 4 3 2 0 1 2 3 3 4 3 3
16 16 15 16 15 15 16 17 13 13 12 12 11 12 10 10 10 23 23 23 19 12 8 11 12 9 9 7 4 6 7 4 4 2 2 2 3 3 1 2 2 3 5
15 16 15 15 16 14 12 11 11 11 11 12 11 11 11 11 10 10 9 10 14 11 12 7 7 7 6 6 2 5 4 3 3 2 2 2 0 2 1 1 1 2 1
14 14 14 12 14 14 12 11 12 12 15 13 11 11 11 10 11 20 16 10 9 10 7 4 2 1 1 2 3 3 3 3 2 1 1 1 1 1 1 1 1 1 3
14 12 12 12 11 11 11 13 20 24 26 26 24 18 10 21 24 23 22 21 16 17 4 5 6 6 5 4 3 3 2 3 1 2 1 2 2 2 2 2 1 2 4
13 14 12 12 11 12 11 12 14 16 24 23 23 24 23 21 22 21 16 19 17 12 3 5 5 5 4 4 3 2 2 2 1 1 1 2 1 2 2 2 2 2 5
12 16 10 10 10 11 11 11 10 11 14 13 18 22 22 23 23 21 22 15 7 7 3 2 2 3 3 2 2 2 2 2 2 2 2 2 2 2 1 2 3 3 5
11 9 10 10 10 12 10 11 10 11 11 11 12 15 15 25 22 21 18 4 4 5 3 3 2 2 2 2 2 2 2 2 2 2 2 2 3 1 3 3 4 6 7
9 14 12 10 10 10 10 10 10 10 11 10 10 10 11 10 9 8 6 5 3 4 4 3 4 3 3 3 3 2 3 2 3 2 3 3 3 2 3 4 4 6 7
9 9 13 9 9 10 10 10 10 10 11 10 10 10 23 10 9 9 8 7 6 5 5 4 4 4 3 3 2 3 3 4 3 4 3 3 3 3 4 5 6 7 8
8 9 9 10 10 10 10 11 10 11 10 11 11 11 22 7 7 7 8 7 7 5 5 5 5 4 4 4 4 3 4 4 4 4 4 4 4 4 4 4 6 7 7
9 9 9 9 9 12 10 10 10 10 11 11 11 11 10 8 8 8 7 7 7 7 6 3 4 5 4 5 4 5 5 5 6 4 5 4 4 4 4 6 6 7 7
9 9 10 9 9 10 10 11 11 13 12 11 11 10 10 10 10 10 9 8 7 6 6 5 5 7 6 5 4 5 5 6 4 6 7 5 5 5 5 7 7 9 9
9 8 9 9 9 10 11 11 11 11 11 11 11 10 11 10 10 10 9 9 8 8 8 7 6 8 9 10 9 9 8 11 7 5 4 7 8 8 7 7 8 8 10
8 9 8 8 9 9 10 11 12 11 12 11 11 11 11 11 10 10 9 9 9 9 10 8 8 10 11 9 10 10 9 11 9 11 8 7 7 7 7 8 11 8 11
Wind_Direction
313 307 304 304 303 301 300 300 300 302 305 305 306 305 300 301 298 294 293 294 294 292 289 280 266 249 243 240 233 228 224 215 231 174 149 166 176 182 166 147 167 182 229
311 307 304 304 304 303 300 302 303 304 306 305 307 305 303 303 303 299 294 296 296 293 292 277 270 249 242 231 222 223 214 191 198 200 176 191 189 188 187 184 217 193 224
307 305 305 305 306 302 302 304 306 309 310 310 310 307 307 306 305 301 298 292 288 289 291 281 267 240 237 230 213 200 178 191 167 150 186 171 128 110 117 183 247 249 232
307 311 312 312 311 306 306 305 306 309 309 312 312 307 304 304 303 299 289 289 284 284 288 277 253 233 231 222 212 195 181 178 171 173 171 177 162 160 176 201 211 210 244
311 313 312 312 311 309 305 305 300 303 306 309 310 308 304 302 302 303 301 296 288 283 282 270 229 215 216 210 192 169 163 178 186 198 188 174 181 191 200 173 202 205 231
312 311 310 308 310 312 304 306 297 303 306 308 308 305 301 299 305 306 307 306 306 297 275 265 218 205 206 230 228 211 198 202 201 190 187 207 202 192 196 190 186 176 300
309 312 312 309 316 314 299 307 304 307 307 304 304 303 300 298 305 307 312 304 307 310 286 260 201 186 187 189 243 261 243 215 200 195 196 199 198 186 163 191 214 199 201
312 317 318 317 314 326 325 312 307 306 303 302 303 301 296 302 306 309 310 308 303 307 318 218 211 186 196 193 179 190 205 224 251 177 173 153 142 180 183 195 211 191 250
318 320 320 335 320 313 315 312 308 307 306 303 299 301 306 301 305 309 312 309 293 298 307 317 282 211 213 207 172 187 198 209 236 219 204 208 214 215 208 189 197 162 277
325 324 323 321 316 311 309 309 308 305 297 308 303 308 298 298 301 310 313 309 305 292 278 271 273 228 238 229 179 179 198 202 185 157 0 286 331 1 320 138 158 239 273
322 321 318 315 313 309 308 307 306 300 317 307 300 303 300 294 302 312 313 321 320 312 290 261 232 260 248 228 205 182 200 179 211 188 173 206 298 326 301 274 195 213 246
322 317 315 316 315 314 313 308 326 320 307 302 305 305 305 311 311 315 321 324 318 320 314 293 227 257 237 216 197 185 208 156 113 110 96 212 238 267 271 257 241 225 223
319 317 316 319 316 323 315 326 313 314 311 315 311 306 322 314 308 312 318 318 333 329 321 304 284 234 237 241 167 109 101 114 119 122 163 211 195 207 298 347 295 259 255
317 319 321 321 324 320 319 316 315 314 317 308 303 326 320 314 310 305 313 322 318 316 314 302 279 294 241 158 138 101 90 90 125 149 161 191 93 43 5 182 192 286 261
322 321 323 323 324 320 318 316 316 312 308 315 323 314 309 319 311 325 330 323 322 355 350 348 19 87 160 80 79 75 83 77 67 112 110 117 103 89 243 206 207 295 229
324 325 323 325 321 319 320 315 316 321 325 325 327 324 319 317 321 329 330 325 0 14 16 12 15 18 39 44 40 32 34 35 41 106 119 162 185 213 242 270 217 221 268
321 318 322 320 319 319 321 319 319 322 322 328 331 332 326 327 331 330 350 9 7 26 34 12 12 9 6 6 7 7 338 10 31 24 342 288 259 248 254 298 288 243 275
317 316 314 315 314 316 316 315 311 314 322 324 327 334 338 334 335 334 352 2 359 15 17 350 337 339 340 333 334 341 319 327 347 329 316 265 251 227 277 262 253 258 275
320 313 314 313 311 311 308 308 307 308 310 313 315 329 331 326 332 349 353 4 344 339 339 336 322 311 306 295 292 307 299 306 293 305 288 274 271 216 264 254 260 261 269
314 307 315 311 310 310 308 309 309 310 309 310 314 319 317 316 346 339 337 333 325 319 315 303 299 285 274 272 290 294 301 291 281 267 261 257 265 227 258 257 249 267 265
308 313 314 307 312 310 308 306 308 305 308 313 311 314 320 351 327 324 324 323 319 309 306 283 281 274 261 258 254 257 249 263 254 257 256 257 246 261 248 249 263 269 269
311 309 310 314 311 309 307 305 303 306 306 310 311 312 321 318 307 306 306 304 301 283 274 277 285 270 261 249 250 245 244 250 255 246 252 252 247 247 246 250 263 264 264
305 304 312 310 307 305 305 304 305 307 308 309 311 312 315 312 309 303 293 287 289 289 286 253 260 273 259 248 231 226 235 242 235 222 242 246 247 245 237 256 259 268 272
310 309 309 307 306 306 303 306 307 308 309 308 311 310 311 311 309 307 304 303 292 278 275 267 260 258 271 267 247 234 228 242 227 238 232 240 247 240 245 256 261 266 270
313 306 306 305 305 305 305 307 309 310 310 310 311 310 309 308 307 306 303 301 298 294 282 276 268 264 264 263 263 258 249 259 253 233 232 236 245 246 252 260 266 271 271
307 302 300 301 302 303 305 307 308 310 310 311 310 309 308 308 307 306 304 300 298 295 298 292 279 266 265 264 257 259 253 255 243 238 231 235 242 249 250 255 262 265 271